CW7368 Weather Reports


Display with metric or nautical units.
time (UTC)temp
F
wind
direction
speed
MPH
gust
MPH
rain 1hr
in
rain 24hr
in
rain mn
in
humidity
%
barometer
mb
20171125040307 63 87 5.0 12.0 0.00 0.00 0.00 71 1027.6
20171125035807 63 120 4.0 12.0 0.00 0.00 0.00 72 1027.6
20171125035307 63 84 6.0 12.0 0.00 0.00 0.00 72 1027.7
20171125034807 63 114 6.0 14.0 0.00 0.00 0.00 71 1027.7
20171125034307 64 64 5.0 12.0 0.00 0.00 0.00 71 1027.6
20171125033807 63 99 3.0 10.0 0.00 0.00 0.00 73 1027.7
20171125033307 63 63 6.0 12.0 0.00 0.00 0.00 71 1027.7
20171125032807 64 65 6.0 14.0 0.00 0.00 0.00 71 1027.7
20171125032307 64 83 7.0 12.0 0.00 0.00 0.00 72 1027.7
20171125031807 64 117 6.0 12.0 0.00 0.00 0.00 71 1027.7
20171125030806 65 81 3.0 10.0 0.00 0.00 0.00 72 1027.7
20171125030307 64 66 6.0 15.0 0.00 0.00 0.00 73 1027.7
20171125025807 64 86 5.0 13.0 0.00 0.00 0.00 72 1027.7
20171125025307 66 98 7.0 15.0 0.00 0.00 0.00 69 1027.7
20171125024806 65 87 5.0 12.0 0.00 0.00 0.00 69 1027.7
20171125024306 66 70 7.0 13.0 0.00 0.00 0.00 68 1027.7
20171125023807 67 75 6.0 12.0 0.00 0.00 0.00 66 1027.6
20171125023307 67 113 6.0 12.0 0.00 0.00 0.00 64 1027.6
20171125022807 67 77 7.0 12.0 0.00 0.00 0.00 62 1027.6
20171125022308 67 64 9.0 14.0 0.00 0.00 0.00 63 1027.6
20171125021807 68 95 5.0 12.0 0.00 0.00 0.00 65 1027.6
20171125021308 67 90 5.0 12.0 0.00 0.00 0.00 65 1027.6
20171125020806 68 84 3.0 8.0 0.00 0.00 0.00 67 1027.7
20171125020307 68 104 3.0 8.0 0.00 0.00 0.00 67 1027.7
20171125015307 67 59 2.0 12.0 0.00 0.00 0.00 69 1027.8
20171125014807 67 104 5.0 10.0 0.00 0.00 0.00 69 1027.7
20171125014307 66 81 4.0 12.0 0.00 0.00 0.00 69 1027.7
20171125013807 66 96 4.0 12.0 0.00 0.00 0.00 70 1027.8
20171125013307 66 101 5.0 10.0 0.00 0.00 0.00 70 1027.7
20171125012807 67 93 2.0 9.0 0.00 0.00 0.00 70 1027.7
20171125011807 66 71 5.0 9.0 0.00 0.00 0.00 71 1027.7
20171125011306 65 65 3.0 10.0 0.00 0.00 0.00 73 1027.6
20171125010808 65 67 6.0 12.0 0.00 0.00 0.00 72 1027.7
20171125010307 66 110 8.0 12.0 0.00 0.00 0.00 71 1027.7
20171125005307 66 86 4.0 12.0 0.00 0.00 0.00 71 1027.7
20171125004807 66 98 4.0 12.0 0.00 0.00 0.00 70 1027.7
20171125004307 66 98 2.0 12.0 0.00 0.00 0.00 72 1027.8
20171125003807 67 90 7.0 12.0 0.00 0.00 0.00 69 1027.8
20171125002807 66 105 4.0 12.0 0.00 0.00 0.00 72 1028.0
20171125001807 67 93 4.0 10.0 0.00 0.00 0.00 70 1028.1
20171125001306 67 66 5.0 12.0 0.00 0.00 0.00 69 1028.2
20171125000807 66 110 5.0 10.0 0.00 0.00 0.00 69 1028.2
20171125000307 67 73 5.0 12.0 0.00 0.00 0.00 68 1028.2
20171124235806 67 87 5.0 10.0 0.00 0.00 0.00 69 1028.3
20171124235307 66 53 3.0 12.0 0.00 0.00 0.00 70 1028.3
20171124234806 67 88 3.0 12.0 0.00 0.00 0.00 70 1028.2
20171124233808 68 88 3.0 10.0 0.00 0.00 0.00 68 1028.2
20171124233307 67 100 5.0 10.0 0.00 0.00 0.00 67 1028.2
20171124232807 68 13 3.0 5.0 0.00 0.00 0.00 68 1028.2
20171124232307 67 55 3.0 8.0 0.00 0.00 0.00 68 1028.2
20171124231807 66 79 3.0 10.0 0.00 0.00 0.00 70 1028.1
20171124231307 67 102 6.0 10.0 0.00 0.00 0.00 67 1028.2
20171124230807 67 92 1.0 9.0 0.00 0.00 0.00 67 1028.1
20171124230307 68 88 0.0 3.0 0.00 0.00 0.00 64 1028.2
20171124225807 70 102 2.0 6.0 0.00 0.00 0.00 61 1028.2
20171124224807 69 261 1.0 3.0 0.00 0.00 0.00 64 1028.2
20171124224307 69 261 0.0 6.0 0.00 0.00 0.00 64 1028.2
20171124223307 68 236 0.0 3.0 0.00 0.00 0.00 66 1028.3
20171124222807 67 238 1.0 3.0 0.00 0.00 0.00 66 1028.3
20171124222307 67 250 1.0 7.0 0.00 0.00 0.00 67 1028.4
20171124221806 67 256 1.0 8.0 0.00 0.00 0.00 66 1028.4
20171124221307 67 253 3.0 9.0 0.00 0.00 0.00 67 1028.4
20171124220807 66 257 0.0 7.0 0.00 0.00 0.00 70 1028.5
20171124220307 66 254 1.0 3.0 0.00 0.00 0.00 71 1028.5
20171124215807 66 249 1.0 5.0 0.00 0.00 0.00 69 1028.5
20171124215307 66 235 1.0 3.0 0.00 0.00 0.00 71 1028.5
20171124214307 65 270 2.0 7.0 0.00 0.00 0.00 71 1028.6
20171124213807 65 240 1.0 2.0 0.00 0.00 0.00 72 1028.6
20171124213307 65 244 1.0 3.0 0.00 0.00 0.00 71 1028.6
20171124212807 65 252 1.0 3.0 0.00 0.00 0.00 71 1028.6
20171124212307 65 244 1.0 3.0 0.00 0.00 0.00 73 1028.5
20171124211307 65 232 2.0 5.0 0.00 0.00 0.00 72 1028.5
20171124210807 64 244 1.0 3.0 0.00 0.00 0.00 74 1028.5
20171124210307 64 250 0.0 3.0 0.00 0.00 0.00 75 1028.6
20171124205307 64 250 0.0 3.0 0.00 0.00 0.00 75 1028.5
20171124204807 63 250 0.0 1.0 0.00 0.00 0.00 75 1028.5
20171124204307 63 250 2.0 3.0 0.00 0.00 0.00 75 1028.5
20171124203807 63 237 1.0 3.0 0.00 0.00 0.00 77 1028.5
20171124203307 62 246 0.0 1.0 0.00 0.00 0.00 79 1028.5
20171124202807 61 246 1.0 3.0 0.00 0.00 0.00 79 1028.5
20171124202307 61 236 2.0 7.0 0.00 0.00 0.00 79 1028.5
20171124201807 61 232 1.0 3.0 0.00 0.00 0.00 80 1028.5
20171124201307 61 236 1.0 5.0 0.00 0.00 0.00 80 1028.4
20171124200807 60 252 1.0 7.0 0.00 0.00 0.00 80 1028.4
20171124200307 60 255 2.0 8.0 0.00 0.00 0.00 80 1028.3
20171124195307 60 248 1.0 3.0 0.00 0.00 0.00 80 1028.2
20171124194807 60 249 0.0 2.0 0.00 0.00 0.00 81 1028.1
20171124194307 59 249 1.0 5.0 0.00 0.00 0.00 82 1028.1
20171124193807 59 241 2.0 3.0 0.00 0.00 0.00 81 1028.2
20171124192806 59 252 2.0 6.0 0.00 0.00 0.00 82 1028.2
20171124192306 59 237 1.0 5.0 0.00 0.00 0.00 82 1028.3
20171124191307 59 232 0.0 7.0 0.00 0.00 0.00 84 1028.4
20171124190807 58 252 0.0 7.0 0.00 0.00 0.00 85 1028.4
20171124190307 58 260 1.0 3.0 0.00 0.00 0.00 86 1028.4
20171124185807 57 260 0.0 1.0 0.00 0.00 0.00 86 1028.4
20171124185307 57 260 1.0 3.0 0.00 0.00 0.00 86 1028.4
20171124184807 56 258 0.0 3.0 0.00 0.00 0.00 87 1028.4
20171124184307 56 258 0.0 1.0 0.00 0.00 0.00 87 1028.3
20171124183807 56 258 0.0 3.0 0.00 0.00 0.00 87 1028.1
20171124183307 56 259 1.0 3.0 0.00 0.00 0.00 87 1028.1
20171124182806 56 257 1.0 6.0 0.00 0.00 0.00 87 1028.0
20171124181307 55 255 1.0 6.0 0.00 0.00 0.00 89 1027.8
20171124180806 55 240 1.0 3.0 0.00 0.00 0.00 89 1027.9
20171124180306 55 240 1.0 2.0 0.00 0.00 0.00 90 1028.0
20171124175807 55 240 0.0 3.0 0.00 0.00 0.00 90 1027.9
20171124175307 55 240 1.0 3.0 0.00 0.00 0.00 89 1027.8
20171124174307 55 237 0.0 0.0 0.00 0.00 0.00 89 1027.8
20171124173807 55 234 0.0 3.0 0.00 0.00 0.00 89 1027.7
20171124173307 55 229 0.0 2.0 0.00 0.00 0.00 90 1027.7
20171124172806 55 229 0.0 2.0 0.00 0.00 0.00 90 1027.7
20171124172306 55 228 0.0 3.0 0.00 0.00 0.00 90 1027.6
20171124171807 55 227 1.0 3.0 0.00 0.00 0.00 90 1027.6
20171124171306 55 227 1.0 3.0 0.00 0.00 0.00 90 1027.5
20171124170806 55 228 0.0 0.0 0.00 0.00 0.00 89 1027.5
20171124170307 55 228 0.0 0.0 0.00 0.00 0.00 90 1027.6
20171124165807 55 228 0.0 0.0 0.00 0.00 0.00 89 1027.6
20171124165307 55 228 0.0 0.0 0.00 0.00 0.00 89 1027.5
20171124164807 55 228 0.0 0.0 0.00 0.00 0.00 89 1027.5
20171124164307 55 228 0.0 1.0 0.00 0.00 0.00 89 1027.4
20171124163806 55 228 0.0 2.0 0.00 0.00 0.00 89 1027.4
20171124163306 56 228 0.0 2.0 0.00 0.00 0.00 89 1027.4
20171124162807 56 228 0.0 0.0 0.00 0.00 0.00 89 1027.4
20171124162307 56 228 0.0 0.0 0.00 0.00 0.00 89 1027.4
20171124161807 56 228 0.0 12.0 0.00 0.00 0.00 88 1027.3
20171124075807 59 256 2.0 6.0 0.00 0.00 0.00 90 1025.8
20171124073807 59 257 2.0 6.0 0.00 0.00 0.00 89 1025.5
20171124073307 60 244 1.0 3.0 0.00 0.00 0.00 89 1025.5
20171124072807 60 245 2.0 6.0 0.00 0.00 0.00 89 1025.5
20171124072307 60 234 2.0 6.0 0.00 0.00 0.00 88 1025.4
20171124071806 60 246 1.0 3.0 0.00 0.00 0.00 88 1025.3
20171124070807 60 248 2.0 6.0 0.00 0.00 0.00 86 1025.3
20171124070307 60 228 2.0 5.0 0.00 0.00 0.00 85 1025.1
20171124065807 61 246 2.0 3.0 0.00 0.00 0.00 85 1025.1
20171124065307 61 244 1.0 7.0 0.00 0.00 0.00 85 1025.1
20171124064807 61 257 1.0 9.0 0.00 0.00 0.00 84 1024.9
20171124064307 61 238 0.0 6.0 0.00 0.00 0.00 85 1024.9
20171124063807 61 225 0.0 1.0 0.00 0.00 0.00 85 1024.8
20171124063307 61 225 0.0 3.0 0.00 0.00 0.00 85 1024.8
20171124062806 61 267 1.0 6.0 0.00 0.00 0.00 86 1024.7
20171124062306 61 227 0.0 2.0 0.00 0.00 0.00 87 1024.6
20171124061807 61 227 0.0 3.0 0.00 0.00 0.00 87 1024.5
20171124061307 61 234 0.0 3.0 0.00 0.00 0.00 88 1024.5
20171124060807 61 242 0.0 7.0 0.00 0.00 0.00 88 1024.5
20171124055807 61 218 2.0 5.0 0.00 0.00 0.00 89 1024.5
20171124054807 61 257 0.0 3.0 0.00 0.00 0.00 88 1024.5
20171124054307 61 258 1.0 7.0 0.00 0.00 0.00 87 1024.5
20171124053807 61 253 0.0 8.0 0.00 0.00 0.00 86 1024.6
20171124053307 62 234 1.0 3.0 0.00 0.00 0.00 85 1024.5
20171124052807 62 232 1.0 7.0 0.00 0.00 0.00 84 1024.3
20171124052307 62 288 0.0 6.0 0.00 0.00 0.00 83 1024.3
20171124051806 62 249 0.0 2.0 0.00 0.00 0.00 83 1024.3
20171124051306 62 249 0.0 3.0 0.00 0.00 0.00 83 1024.4
20171124050807 62 247 1.0 5.0 0.00 0.00 0.00 82 1024.3
20171124050307 63 232 0.0 3.0 0.00 0.00 0.00 82 1024.2
20171124045807 63 232 1.0 3.0 0.00 0.00 0.00 81 1024.2
20171124045307 63 235 1.0 3.0 0.00 0.00 0.00 81 1024.3
20171124044807 63 238 0.0 3.0 0.00 0.00 0.00 81 1024.3
20171124044307 63 248 1.0 3.0 0.00 0.00 0.00 80 1024.4
20171124043807 63 242 1.0 3.0 0.00 0.00 0.00 80 1024.3
20171124043307 63 236 0.0 8.0 0.00 0.00 0.00 79 1024.2
20171124042807 64 217 0.0 1.0 0.00 0.00 0.00 79 1024.2
20171124042308 64 217 0.0 1.0 0.00 0.00 0.00 79 1024.0
20171124041307 64 215 0.0 2.0 0.00 0.00 0.00 78 1024.0
20171124040807 64 216 0.0 2.0 0.00 0.00 0.00 78 1024.0